Mount Ida, AR

6:50 AM CST on December 12, 2017 (GMT -0600)
Mount Ida

Weather History for KMWT - October, 2014

Change the Weather History Date:

Saturday, October 25, 2014

  Actual Average (KHOT) Record (KHOT)
Temperature  
Mean Temperature 69 °F -  
Max Temperature 86 °F 71 °F 89 °F (1992)
Min Temperature 54 °F 48 °F 32 °F (1981)
Cooling Degree Days 4    
Growing Degree Days 19 (Base 50)    
Moisture  
Dew Point 58 °F    
Average Humidity 85    
Maximum Humidity 97    
Minimum Humidity 46    
Precipitation  
Precipitation 0.00 in - - ()
Sea Level Pressure  
Sea Level Pressure 30.07 in    
Wind  
Wind Speed 0 mph (NW)    
Max Wind Speed 6 mph    
Max Gust Speed -    
Visibility 5 miles    
Events      
Averages and records for this station are not official NWS values.
T = Trace of Precipitation, MM = Missing Value Source: NWS Daily Summary

Daily Weather History Graph

Daily Weather History Graph

Search for Another Location

Airport or City:

Trip Planner

Search our weather history database for the weather conditions in past years. The results will help you decide how hot, cold, wet, or windy it might be!

Date:

Astronomy

Oct. 25, 2014 Rise Set
Actual Time 7:28 AM CDT 6:27 PM CDT
Civil Twilight 7:02 AM CDT 6:53 PM CDT
Nautical Twilight 6:33 AM CDT 7:23 PM CDT
Astronomical Twilight 6:03 AM CDT 7:52 PM CDT
Moon 9:04 AM CDT (10/25) 7:55 PM CDT (10/25)
Length of Visible Light 11h 50m
Length of Day
10h 59m
Waxing Crescent, 3% of the Moon is Illuminated
Oct 25
Waxing Crescent
Oct 30
First Quarter
Nov 6
Full
Nov 14
Last Quarter
Nov 22
New

Hourly Weather History & Observations

Time (CDT) Temp. Heat Index Dew Point Humidity Pressure Visibility Wind Dir Wind Speed Gust Speed Precip Events Conditions
12:15 AM 57.9 °F - 55.9 °F 93% 30.10 in 3.0 mi Calm Calm - N/A   Clear
12:30 AM 57.9 °F - 57.0 °F 97% 30.10 in 1.5 mi Calm Calm - N/A   Clear
12:41 AM 57.0 °F - 55.0 °F 93% 30.09 in 3.0 mi Calm Calm - N/A   Clear
12:53 AM 57.0 °F - 55.9 °F 96% 30.08 in 3.0 mi Calm Calm - N/A   Clear
1:38 AM 57.0 °F - 55.0 °F 93% 30.09 in 2.5 mi Calm Calm - N/A   Clear
1:53 AM 57.0 °F - 55.0 °F 93% 30.08 in 1.2 mi Calm Calm - N/A   Clear
2:09 AM 55.9 °F - 55.0 °F 97% 30.09 in 0.8 mi Calm Calm - N/A   Clear
2:18 AM 55.9 °F - 54.0 °F 93% 30.09 in 1.2 mi Calm Calm - N/A   Clear
2:39 AM 55.9 °F - 54.0 °F 93% 30.09 in 0.8 mi Calm Calm - N/A   Clear
2:53 AM 55.9 °F - 54.0 °F 93% 30.07 in 0.8 mi Calm Calm - N/A   Clear
3:00 AM 55.9 °F - 54.0 °F 93% 30.09 in 1.8 mi Calm Calm - N/A   Clear
3:20 AM 55.0 °F - 54.0 °F 96% 30.09 in 3.0 mi Calm Calm - N/A   Clear
3:37 AM 55.0 °F - 54.0 °F 96% 30.09 in 1.8 mi Calm Calm - N/A   Clear
3:50 AM 55.0 °F - 54.0 °F 96% 30.07 in 3.0 mi Calm Calm - N/A   Clear
4:53 AM 54.0 °F - 53.1 °F 97% 30.07 in 4.0 mi Calm Calm - N/A   Clear
5:32 AM 55.9 °F - 54.0 °F 93% 30.09 in 2.5 mi Calm Calm - N/A   Clear
5:53 AM 54.0 °F - 53.1 °F 97% 30.08 in 5.0 mi Calm Calm - N/A   Clear
6:53 AM 55.0 °F - 54.0 °F 96% 30.09 in 2.0 mi Calm Calm - N/A   Clear
7:02 AM 55.9 °F - 54.0 °F 93% 30.10 in 1.0 mi Calm Calm - N/A   Clear
7:16 AM 55.9 °F - 54.0 °F 93% 30.10 in 2.0 mi Calm Calm - N/A   Clear
7:24 AM 55.0 °F - 53.1 °F 93% 30.10 in 1.8 mi Calm Calm - N/A   Clear
7:38 AM 54.0 °F - 53.1 °F 97% 30.10 in 2.5 mi Calm Calm - N/A   Clear
7:53 AM 55.0 °F - 53.1 °F 93% 30.11 in 2.5 mi Calm Calm - N/A   Clear
8:04 AM 54.0 °F - 53.1 °F 97% 30.11 in 4.0 mi Calm Calm - N/A   Clear
8:53 AM 60.1 °F - 57.9 °F 93% 30.12 in 4.0 mi Calm Calm - N/A   Clear
9:53 AM 69.1 °F - 63.0 °F 81% 30.11 in 10.0 mi Calm Calm - N/A   Clear
10:53 AM 75.9 °F - 62.1 °F 62% 30.10 in 10.0 mi Variable 5.8 mph - N/A   Clear
11:53 AM 80.1 °F 81.2 °F 62.1 °F 54% 30.09 in 10.0 mi Variable 5.8 mph - N/A   Clear
12:53 PM 82.0 °F 83.0 °F 62.1 °F 51% 30.06 in 10.0 mi NW 5.8 mph - N/A   Clear
1:53 PM 82.9 °F 84.0 °F 63.0 °F 51% 30.04 in 10.0 mi Variable 5.8 mph - N/A   Clear
2:53 PM 84.9 °F 85.4 °F 62.1 °F 46% 30.02 in 10.0 mi Variable 3.5 mph - N/A   Clear
3:53 PM 84.9 °F 85.9 °F 63.0 °F 48% 30.01 in 10.0 mi Variable 4.6 mph - N/A   Clear
4:53 PM 82.9 °F 84.4 °F 64.0 °F 53% 30.01 in 10.0 mi Calm Calm - N/A   Clear
5:53 PM 78.1 °F - 66.0 °F 66% 30.02 in 10.0 mi Calm Calm - N/A   Clear
6:53 PM 73.0 °F - 66.0 °F 79% 30.03 in 10.0 mi Calm Calm - N/A   Clear
7:53 PM 69.1 °F - 64.9 °F 87% 30.04 in 10.0 mi Calm Calm - N/A   Clear
8:53 PM 66.9 °F - 64.0 °F 90% 30.03 in 8.0 mi Calm Calm - N/A   Clear
9:53 PM 66.0 °F - 63.0 °F 90% 30.02 in 6.0 mi Calm Calm - N/A   Clear
10:53 PM 64.9 °F - 63.0 °F 93% 30.01 in 5.0 mi Calm Calm - N/A   Clear
11:53 PM 64.0 °F - 62.1 °F 93% 30.01 in 1.8 mi Calm Calm - N/A   Clear